Location: Guadanolo
(41.9167°N, 12.9333°E)
Time: 11:23:05
(UTC+00:00)

Lacrosse 4 Rocket - Pass Details

Date: 16 September 2019
Orbit: 544 x 615 km, 68.0° (Epoch: 14 October)

Event Time Altitude Azimuth Distance (km) Brightness Sun altitude
Rises 17:37:50 0° 328° (NNW) 2,726 5.5 -4.7°
Reaches altitude 10° 17:40:03 10° 325° (NW) 1,823 4.7 -5.1°
Maximum altitude 17:44:04 62° 245° (WSW) 618 1.9 -5.9°
Drops below altitude 10° 17:48:02 10° 165° (SSE) 1,804 3.7 -6.6°
Sets 17:50:14 0° 162° (SSE) 2,695 4.6 -7.0°
